Weather observations for the past three days for
Smithfield, Johnston County Airport
Imperial (Metric)
Date Time (edt) Wind (mph) Vis. (mi.) Weather Sky Cond. Temperature (ºF) Relative Humidity Wind Chill (°F) Heat Index (°F) Pressure Precipitation (in)
Air Dwpt 6 hour altimeter (in) sea level (mb) 1 hr 3 hr 6 hr
Max. Min.
17 21:25 S 10 10.00 Fair CLR 82.4 77 84% 91 29.92 0.0
17 21:05 S 8 10.00 Fair CLR 82.4 77 84% 91 29.92 0.0
17 20:45 S 6 10.00 Fair CLR 82.4 77 84% 91 29.92 0.0
17 20:25 S 6 10.00 Fair CLR 82.4 77 84% 91 29.9 0.0
17 20:05 S 7 10.00 Fair CLR 82.4 77 84% 91 29.9 0.0
17 19:45 S 9 10.00 Fair CLR 84.2 77 79% 94 29.9 0.0
17 19:25 S 12 10.00 Fair CLR 84.2 75.2 74% 92 29.88 0.0
17 19:05 S 12 G 21 10.00 Fair CLR 84.2 75.2 74% 92 29.88 0.0
17 18:25 S 12 G 22 10.00 Fair CLR 86 77 75% 97 29.9 0.0
17 18:05 S 15 G 21 10.00 Partly Cloudy SCT037 SCT043 86 77 75% 97 29.9 0.0
17 17:45 S 13 G 22 10.00 Partly Cloudy SCT035 SCT043 86 75.2 70% 95 29.9 0.0
17 17:25 S 13 10.00 Fair CLR 86 77 75% 97 29.89 0.0
17 17:05 S 13 G 17 10.00 Thunderstorm in Vicinity SCT035 87.8 77 70% 100 29.89 0.0
17 16:45 S 12 10.00 Partly Cloudy SCT035 89.6 77 67% 103 29.89 0.0
17 16:25 S 8 10.00 Partly Cloudy SCT047 SCT055 SCT090 87.8 77 70% 100 29.9 0.0
17 16:05 SW 12 10.00 Rain SCT046 BKN075 OVC095 87.8 77 70% 100 29.9 0.0
17 15:45 SW 6 10.00 Light Rain SCT050 BKN075 BKN085 89.6 77 67% 103 29.92 0.0
17 15:25 SW 10 10.00 Partly Cloudy SCT042 SCT070 SCT085 89.6 75.2 63% 100 29.92 0.0
17 15:05 SW 12 10.00 Partly Cloudy SCT042 91.4 77 63% 105 29.93 0.0
17 14:45 S 9 10.00 Partly Cloudy SCT042 SCT049 SCT080 91.4 75.2 59% 103 29.93 0.0
17 14:25 S 13 G 16 10.00 Mostly Cloudy SCT042 BKN060 BKN080 91.4 75.2 59% 103 29.94 0.0
17 14:05 SW 8 10.00 Overcast BKN038 BKN048 OVC060 89.6 75.2 63% 100 29.94 0.0
17 13:45 SW 8 10.00 Mostly Cloudy BKN038 BKN049 BKN055 89.6 77 67% 103 29.94 0.0
17 13:25 S 10 G 16 10.00 Mostly Cloudy BKN034 BKN046 89.6 77 67% 103 29.94 0.0
17 12:45 S 7 10.00 Mostly Cloudy BKN030 89.6 77 67% 103 29.95 0.0
17 12:25 S 9 10.00 Mostly Cloudy BKN030 87.8 78.8 75% 102 29.95 0.0
17 12:05 S 6 10.00 Fair CLR 87.8 77 70% 100 29.96 0.0
17 11:45 S 7 10.00 Fair CLR 87.8 77 70% 100 29.97 0.0
17 11:25 S 8 10.00 Partly Cloudy SCT025 86 77 75% 97 29.97 0.0
17 11:05 S 6 10.00 Fair CLR 86 77 75% 97 29.97 0.0
17 10:45 SW 6 10.00 Fair CLR 86 75.2 70% 95 29.97 0.0 0.13
17 10:25 SW 6 10.00 Fair CLR 84.2 77 79% 94 29.98 0.0 0.13
17 10:05 SW 3 10.00 Fair CLR 82.4 75.2 79% 89 29.98 0.0
17 09:45 SW 7 10.00 Fair CLR 82.4 75.2 79% 89 29.98 0.0
17 09:25 W 6 10.00 Fair CLR 82.4 75.2 79% 89 29.99 0.0
17 09:05 SW 6 10.00 Fair CLR 80.6 75.2 84% 86 29.99 0.0
17 08:45 S 7 10.00 Fair CLR 80.6 73.4 79% 85 30 0.0
17 08:25 SW 6 10.00 Partly Cloudy SCT012 78.8 73.4 84% 82 30 0.0
17 08:05 SW 6 10.00 Partly Cloudy SCT012 78.8 73.4 84% 82 30.01 0.0
17 07:45 SW 7 10.00 Fair CLR 77 73.4 89% 78 30 0.0
17 07:25 SW 7 10.00 Fair CLR 77 73.4 89% 78 29.99 0.0
17 07:05 SW 6 10.00 Fair CLR 77 73.4 89% 78 29.99 0.0
17 06:45 SW 5 10.00 Fair CLR 77 71.6 83% 78 29.98 0.0
17 06:25 S 3 10.00 Fair CLR 77 71.6 83% 78 29.97 0.0
17 06:05 SW 3 10.00 Fair CLR 77 71.6 83% 78 29.97 0.0
17 05:45 S 3 10.00 Fair CLR 77 71.6 83% 78 29.96 0.0
17 05:25 S 5 10.00 Fair CLR 77 71.6 83% 78 29.94 0.0
17 05:05 S 3 10.00 Fair CLR 77 71.6 83% 78 29.94 0.0
17 04:45 S 7 10.00 Fair CLR 77 71.6 83% 78 29.93 0.0
17 04:25 SW 6 10.00 Fair CLR 77 71.6 83% 78 29.93 0.0
17 04:05 SW 7 10.00 Fair CLR 77 71.6 83% 78 29.93 0.0
17 03:45 S 7 10.00 Fair CLR 77 71.6 83% 78 29.93 0.0
17 03:25 SW 7 10.00 Fair CLR 77 71.6 83% 78 29.93 0.0
17 03:05 SW 6 10.00 Fair CLR 77 71.6 83% 78 29.94 0.0
17 02:45 S 10 10.00 Fair CLR 77 71.6 83% 78 29.93 0.0
17 02:25 SW 8 10.00 Fair CLR 78.8 71.6 79% 82 29.94 0.0
17 02:05 S 6 10.00 Fair CLR 78.8 71.6 79% 82 29.94 0.0
17 01:45 S 7 10.00 Fair CLR 78.8 71.6 79% 82 29.95 0.0
17 01:25 S 8 10.00 Fair CLR 78.8 71.6 79% 82 29.95 0.0
17 01:05 S 7 10.00 Fair CLR 78.8 71.6 79% 82 29.96 0.0
17 00:45 S 8 10.00 Fair CLR 78.8 71.6 79% 82 29.97 0.0
17 00:25 S 5 10.00 Fair CLR 78.8 71.6 79% 82 29.97 0.0
17 00:05 Calm 10.00 Fair CLR 78.8 71.6 79% 82 29.97 0.0
16 23:45 S 6 10.00 Fair CLR 80.6 71.6 74% 85 29.97 0.0
16 23:25 SW 8 10.00 Fair CLR 80.6 71.6 74% 85 29.97 0.0
16 23:05 SW 7 10.00 Fair CLR 80.6 71.6 74% 85 29.96 0.0
16 22:45 SW 6 10.00 Fair CLR 82.4 71.6 70% 87 29.96 0.0
16 22:25 SW 7 10.00 Fair CLR 82.4 71.6 70% 87 29.96 0.0
16 22:05 S 8 10.00 Fair CLR 82.4 71.6 70% 87 29.96 0.0
16 21:45 SW 9 10.00 Fair CLR 84.2 71.6 66% 90 29.96 0.0
16 21:25 SW 10 10.00 Fair CLR 84.2 71.6 66% 90 29.95 0.0
16 21:05 S 8 10.00 Fair CLR 86 71.6 62% 92 29.93 0.0
16 20:45 SW 9 10.00 Fair CLR 87.8 71.6 59% 94 29.94 0.0
16 20:25 SW 13 G 20 10.00 Fair CLR 87.8 71.6 59% 94 29.93 0.0
16 20:05 SW 12 10.00 Partly Cloudy SCT070 87.8 73.4 62% 96 29.93 0.0
16 19:45 SW 10 G 18 10.00 Fair CLR 89.6 75.2 63% 100 29.92 0.0
16 19:25 S 16 G 21 10.00 Fair CLR 91.4 75.2 59% 103 29.91 0.0
16 19:05 S 7 10.00 Fair CLR 91.4 75.2 59% 103 29.91 0.0
16 18:25 S 8 10.00 Fair CLR 95 75.2 53% 107 29.9 0.0
16 18:05 S 12 G 16 10.00 Fair CLR 93.2 73.4 53% 103 29.89 0.0
16 17:45 S 9 G 17 10.00 Fair CLR 95 75.2 53% 107 29.89 0.0
16 17:25 S 14 G 18 10.00 Fair CLR 95 75.2 53% 107 29.89 0.0
16 17:05 S 13 G 20 10.00 Fair CLR 95 77 56% 110 29.9 0.0
16 16:45 S 13 10.00 Partly Cloudy SCT047 93.2 77 59% 107 29.91 0.0
16 16:25 S 13 G 17 10.00 Fair CLR 93.2 77 59% 107 29.91 0.0
16 16:05 SW 12 10.00 Fair CLR 93.2 77 59% 107 29.91 0.0
16 15:45 S 10 10.00 Fair CLR 93.2 77 59% 107 29.91 0.0
16 15:25 SW 7 G 16 10.00 Fair CLR 91.4 77 63% 105 29.92 0.0
16 15:05 SW 9 10.00 Fair CLR 91.4 77 63% 105 29.93 0.0
16 14:45 SW 8 G 18 10.00 Fair CLR 91.4 77 63% 105 29.94 0.0
16 14:25 S 10 G 16 10.00 Fair CLR 91.4 77 63% 105 29.94 0.0
16 14:05 S 13 10.00 Fair CLR 91.4 78.8 67% 108 29.94 0.0
16 13:45 S 10 G 16 10.00 Fair CLR 91.4 78.8 67% 108 29.95 0.0
16 13:25 S 10 10.00 Fair CLR 89.6 77 67% 103 29.96 0.0
16 13:05 S 9 10.00 Fair CLR 89.6 77 67% 103 29.97 0.0
16 12:45 S 8 10.00 Fair CLR 89.6 77 67% 103 29.98 0.0
16 12:25 S 6 10.00 Fair CLR 87.8 77 70% 100 29.98 0.0
16 12:05 SW 9 10.00 Fair CLR 87.8 77 70% 100 29.98 0.0
16 11:45 S 8 10.00 Fair CLR 87.8 77 70% 100 29.98 0.0
16 11:25 SW 7 10.00 Fair CLR 86 77 75% 97 29.99 0.0
16 11:05 S 8 10.00 Fair CLR 84.2 77 79% 94 29.98 0.0
16 10:45 SW 7 10.00 Fair CLR 84.2 75.2 74% 92 29.98 0.0
16 10:25 SW 9 10.00 Fair CLR 84.2 77 79% 94 29.98 0.0
16 10:05 S 13 10.00 Fair CLR 84.2 77 79% 94 29.98 0.0
16 09:45 S 6 10.00 Fair CLR 82.4 77 84% 91 29.98 0.0
16 09:25 S 9 10.00 Fair CLR 82.4 75.2 79% 89 29.98 0.0
16 09:05 S 10 10.00 Fair CLR 80.6 75.2 84% 86 29.98 0.0
16 08:45 S 8 10.00 Fair CLR 80.6 75.2 84% 86 29.98 0.0
16 08:25 S 7 10.00 Fair CLR 78.8 73.4 84% 82 29.97 0.0
16 08:05 S 8 10.00 Fair CLR 78.8 73.4 84% 82 29.97 0.0
16 07:45 SW 7 10.00 Fair CLR 77 73.4 89% 78 29.98 0.0
16 07:25 SW 5 10.00 Fair CLR 75.2 73.4 94% 74 29.97 0.0
16 07:05 S 3 10.00 Fair CLR 75.2 73.4 94% 74 29.97 0.0
16 06:45 S 3 10.00 Fair CLR 75.2 73.4 94% 74 29.97 0.0
16 06:25 Calm 10.00 Fair CLR 73.4 73.4 100% 29.97 0.0
16 06:05 Calm 10.00 Fair CLR 73.4 73.4 100% 29.97 0.0
16 05:45 Calm 10.00 Fair CLR 75.2 71.6 89% 75 29.96 0.0
16 05:25 Calm 10.00 Fair CLR 75.2 73.4 94% 74 29.96 0.0
16 05:05 Calm 10.00 Fair CLR 73.4 71.6 94% 29.96 0.0
16 04:45 Calm 10.00 Fair CLR 73.4 71.6 94% 29.95 0.0
16 04:25 Calm 10.00 Fair CLR 73.4 71.6 94% 29.94 0.0
16 04:05 Calm 10.00 Fair CLR 73.4 71.6 94% 29.93 0.0
16 03:45 Calm 10.00 Fair CLR 75.2 71.6 89% 75 29.93 0.0
16 03:25 Calm 10.00 Fair CLR 75.2 71.6 89% 75 29.92 0.0
16 03:05 Calm 10.00 Fair CLR 75.2 71.6 89% 75 29.93 0.0
16 02:45 S 3 10.00 Fair CLR 73.4 71.6 94% 29.92 0.0
16 02:25 Calm 10.00 Fair CLR 73.4 71.6 94% 29.93 0.0
16 02:05 Calm 10.00 Fair CLR 73.4 71.6 94% 29.93 0.0
16 01:45 Calm 10.00 Fair CLR 73.4 71.6 94% 29.94 0.0
16 01:25 Calm 10.00 Fair CLR 73.4 71.6 94% 29.95 0.0
16 01:05 Calm 10.00 Fair CLR 75.2 71.6 89% 75 29.95 0.0
16 00:45 Calm 10.00 Fair CLR 77 71.6 83% 78 29.96 0.0
16 00:25 S 3 10.00 Fair CLR 77 71.6 83% 78 29.96 0.0
16 00:05 S 3 10.00 Fair CLR 77 71.6 83% 78 29.97 0.0
15 23:45 Calm 10.00 Fair CLR 77 73.4 89% 78 29.97 0.0
15 23:25 Calm 10.00 Fair CLR 75.2 73.4 94% 74 29.97 0.0
15 23:05 Calm 10.00 Fair CLR 77 71.6 83% 78 29.96 0.0
15 22:45 Calm 10.00 Fair CLR 77 71.6 83% 78 29.96 0.0
15 22:25 Calm 10.00 Fair CLR 77 71.6 83% 78 29.96 0.0
15 22:05 Calm 10.00 Fair CLR 77 71.6 83% 78 29.96 0.0
15 21:45 Calm 10.00 Fair CLR 77 71.6 83% 78 29.95 0.0
15 21:25 Calm 10.00 Fair CLR 78.8 71.6 79% 82 29.95 0.0
15 21:05 Calm 10.00 Fair CLR 80.6 71.6 74% 85 29.95 0.0
15 20:45 Calm 10.00 Fair CLR 80.6 71.6 74% 85 29.96 0.0
15 20:25 SW 3 10.00 Fair CLR 82.4 71.6 70% 87 29.95 0.0
15 20:05 S 10 10.00 Fair CLR 82.4 71.6 70% 87 29.95 0.0
15 19:45 S 12 10.00 Fair CLR 82.4 71.6 70% 87 29.96 0.0
15 19:25 SW 10 10.00 Fair CLR 84.2 73.4 70% 91 29.96 0.0
15 19:05 SW 8 G 12 10.00 Fair CLR 84.2 71.6 66% 90 29.96 0.0
15 18:45 S 5 10.00 Fair CLR 84.2 71.6 66% 90 29.94 0.0
15 18:25 Calm 10.00 Fair CLR 84.2 71.6 66% 90 29.92 0.0
15 18:05 SW 5 10.00 Fair CLR 84.2 69.8 62% 88 29.92 0.0
15 17:45 SW 3 10.00 Fair CLR 84.2 71.6 66% 90 29.92 0.0
15 17:25 SW 6 10.00 Fair CLR 86 71.6 62% 92 29.92 0.0
15 16:45 SW 5 10.00 Fair CLR 87.8 77 70% 100 29.93 0.0
15 16:25 SW 3 10.00 Fair CLR 87.8 77 70% 100 29.93 0.0
15 16:05 SW 3 10.00 Fair CLR 89.6 77 67% 103 29.94 0.0
15 15:45 SW 5 10.00 Fair CLR 91.4 73.4 56% 100 29.94 0.0
15 15:25 S 7 10.00 Fair CLR 96.8 73.4 47% 107 29.94 0.0
15 15:05 SW 5 10.00 Fair CLR 95 71.6 47% 103 29.95 0.0
15 14:45 SE 5 10.00 Fair CLR 95 73.4 50% 105 29.96 0.0
15 14:25 Calm 10.00 Fair CLR 95 73.4 50% 105 29.97 0.0
15 14:05 S 7 10.00 Fair CLR 95 73.4 50% 105 29.98 0.0
15 13:45 SW 6 10.00 Fair CLR 95 77 56% 110 29.98 0.0
15 13:25 SW 8 10.00 Fair CLR 95 77 56% 110 29.99 0.0
15 13:05 Calm 10.00 Fair CLR 93.2 77 59% 107 30 0.0
15 12:45 SW 7 10.00 Fair CLR 93.2 77 59% 107 30 0.0
15 12:25 SW 6 10.00 Fair CLR 91.4 78.8 67% 108 30 0.0
15 12:05 SW 3 10.00 Fair CLR 91.4 77 63% 105 30.01 0.0
15 11:45 SW 3 10.00 Fair CLR 91.4 77 63% 105 30.02 0.0
15 11:25 Calm 10.00 Fair CLR 89.6 77 67% 103 30.02 0.0
15 11:05 Calm 10.00 Fair CLR 89.6 77 67% 103 30.02 0.0
15 10:45 SW 3 10.00 Fair CLR 87.8 77 70% 100 30.03 0.0
15 10:25 Calm 10.00 Fair CLR 87.8 77 70% 100 30.03 0.0
15 10:05 S 3 10.00 Fair CLR 86 77 75% 97 30.03 0.0
15 09:45 SW 3 10.00 Fair CLR 86 77 75% 97 30.04 0.0
15 09:25 SW 3 10.00 Fair CLR 84.2 77 79% 94 30.03 0.0
15 09:05 Calm 10.00 Fair CLR 82.4 77 84% 91 30.04 0.0
15 08:45 SW 3 10.00 Fair CLR 82.4 77 84% 91 30.04 0.0
15 08:25 Calm 10.00 Fair CLR 80.6 75.2 84% 86 30.04 0.0
15 08:05 Calm 10.00 Fair CLR 78.8 75.2 89% 82 30.03 0.0
15 07:45 Calm 10.00 Fair CLR 77 75.2 94% 78 30.03 0.0
15 07:25 Calm 10.00 Fair CLR 77 75.2 94% 78 30.03 0.0
15 07:05 Calm 10.00 Fair CLR 75.2 73.4 94% 74 30.03 0.0
15 06:45 Calm 10.00 Fair CLR 75.2 73.4 94% 74 30.02 0.0
15 06:25 Calm 7.00 Fair CLR 75.2 73.4 94% 74 30.01 0.0
15 06:05 Calm 7.00 Fair CLR 75.2 73.4 94% 74 30.01 0.0
15 05:45 Calm 10.00 Fair CLR 75.2 73.4 94% 74 30.01 0.0
15 05:25 Calm 7.00 Fair CLR 75.2 73.4 94% 74 30 0.0
15 05:05 Calm 10.00 Fair CLR 75.2 73.4 94% 74 30 0.0
15 04:45 Calm 10.00 Fair CLR 77 75.2 94% 78 30 0.0
15 04:25 Calm 10.00 Fair CLR 77 75.2 94% 78 29.99 0.0
15 04:05 Calm 10.00 Fair CLR 77 75.2 94% 78 29.98 0.0
15 03:45 S 3 10.00 Fair CLR 77 75.2 94% 78 29.98 0.0
15 03:25 Calm 10.00 Fair CLR 77 75.2 94% 78 29.98 0.0
15 03:05 Calm 10.00 Fair CLR 78.8 75.2 89% 82 29.99 0.0
15 02:45 Calm 10.00 Fair CLR 78.8 75.2 89% 82 30 0.0
15 02:25 S 3 10.00 Fair CLR 78.8 77 94% 83 30 0.0
15 02:05 SW 6 10.00 Fair CLR 80.6 77 89% 87 30.01 0.0
15 01:45 SW 5 10.00 Fair CLR 80.6 77 89% 87 30.01 0.0
15 01:25 SW 5 10.00 Fair CLR 80.6 77 89% 87 30.02 0.0
15 01:05 SW 5 10.00 Fair CLR 80.6 77 89% 87 30.02 0.0
15 00:45 Calm 10.00 Fair CLR 77 77 100% 78 30.03 0.0
15 00:25 Calm 10.00 Fair CLR 78.8 77 94% 83 30.03 0.0
15 00:05 SW 3 10.00 Fair CLR 77 77 100% 78 30.03 0.0
14 23:45 Calm 10.00 Fair CLR 78.8 75.2 89% 82 30.03 0.0
14 23:25 Calm 10.00 Fair CLR 77 77 100% 78 30.03 0.0
14 23:05 Calm 10.00 Fair CLR 77 77 100% 78 30.03 0.0
14 22:45 Calm 10.00 Fair CLR 78.8 77 94% 83 30.03 0.0
14 22:25 Calm 10.00 Fair CLR 78.8 77 94% 83 30.03 0.0
14 22:05 Calm 10.00 Fair CLR 78.8 77 94% 83 30.04 0.0
Date Time (edt) Wind (mph) Vis. (mi.) Weather Sky Cond. Air Dwpt Max. Min. Relative Humidity Wind Chill (°F) Heat Index (°F) altimeter (in) sea level (mb) 1 hr 3 hr 6 hr
6 hour
Temperature (ºF) Pressure Precipitation (in)